Regional Weather Roundup
Issued by NWS

Home | Current Version | Previous Version | Text Only | Print | Product List | Glossary Off
Versions: 1 2 3 4 5 6 7 8 9 10 11 12 13 14 15 16 17 18 19 20 21 22 23 24 25 26 27 28 29 30 31 32 33 34 35 36 37 38 39 40 41 42 43 44 45 46 47 48 49 50

000
ASUS43 KFSD 020502
RWRSD

WEATHER ROUNDUP FOR SOUTH DAKOTA
NATIONAL WEATHER SERVICE SIOUX FALLS SD
1200 AM CDT THU JUL 02 2015

NOTE: "FAIR" INDICATES FEW OR NO CLOUDS BELOW 12,000 FEET WITH NO
SIGNIFICANT WEATHER AND/OR OBSTRUCTIONS TO VISIBILITY.


SDZ001>005-009-010-012>017-020600-
NORTHWEST AND NORTH CENTRAL SOUTH DAKOTA

CITY           SKY/WX    TMP DP  RH WIND       PRES   REMARKS
BUFFALO          N/A     66  64  93 W7        29.97R
FAITH            N/A     66  62  87 N5        30.00S
MOBRIDGE       CLOUDY    70  68  93 E8        29.94F
$$

SDZ012>016-024>037-041>051-057-063-072>074-020600-
SOUTHWEST AND SOUTH CENTRAL SOUTH DAKOTA

CITY           SKY/WX    TMP DP  RH WIND       PRES   REMARKS
RAPID CTY ARPT TSTM      69  65  86 NE9       30.05R
PIERRE         MOCLDY    68  65  90 E5        29.94S
CUSTER         TSTM      64  61  90 N13       30.23R FOG
ELLSWORTH AFB  RAIN      70  67  89 N6        30.05
PHILIP         CLOUDY    69  65  86 NE6       29.95F
PINE RIDGE     TSTM      68  64  87 E10       29.98F
WINNER         FAIR      69  64  84 E8        29.97R
$$

SDZ004>011-016>023-039-040-020600-
NORTHEAST SOUTH DAKOTA

CITY           SKY/WX    TMP DP  RH WIND       PRES   REMARKS
ABERDEEN       MOCLDY    64  60  87 SE7       29.98R
WATERTOWN      CLOUDY    62  53  72 SE6       30.01R
BROOKINGS      CLEAR     63  54  72 SE8       30.02R
SISSETON         N/A     59  56  89 S6        29.99R
$$

SDZ017-020-022-023-036>040-048>070-020600-
SOUTHEAST SOUTH DAKOTA

CITY           SKY/WX    TMP DP  RH WIND       PRES   REMARKS
SIOUX FALLS    MOCLDY    63  57  81 E7        29.99R
HURON          CLEAR     65  59  81 SE8       29.97R
MITCHELL       PTCLDY    67  64  90 SE7       29.97R
YANKTON        PTCLDY    66  61  82 E8        29.95R
$$

ABBREVIATIONS USED IN REMARKS
   TC - TEMPERATURE IN CELSIUS
  WCI - WIND CHILL INDEX
   HX - HEAT INDEX
  VSB - VISIBILITY




USA.gov is the U.S. government's official web portal to all federal, state and local government web resources and services.